| time (UTC) | temp C | wind direction | speed KPH | gust KPH | rain 1hr cm | rain 24hr cm | rain mn cm | humidity % | barometer mb |
| 20260906004017 | 32 | 214 | 0.0 | 3.2 | 0.00 | 0.00 | 0.00 | 65 | 1010.5 |
| 20260906003016 | 33 | 102 | 0.0 | 1.6 | 0.00 | 0.00 | 0.00 | 62 | 1010.4 |
| 20260906002022 | 34 | 313 | 0.0 | 3.2 | 0.00 | 0.00 | 0.00 | 54 | 1010.4 |
| 20260906001017 | 35 | 249 | 3.2 | 6.4 | 0.00 | 0.00 | 0.00 | 51 | 1010.4 |
| 20260906000038 | 35 | 259 | 3.2 | 6.4 | 0.00 | 0.00 | 0.00 | 50 | 1010.5 |
| 20260905235018 | 35 | 243 | 0.0 | 3.2 | 0.00 | 0.00 | 0.00 | 49 | 1010.5 |
| 20260905234039 | 35 | 47 | 0.0 | 3.2 | 0.00 | 0.00 | 0.00 | 48 | 1010.5 |
| 20260905233017 | 36 | 40 | 1.6 | 4.8 | 0.00 | 0.00 | 0.00 | 46 | 1010.4 |
| 20260905232038 | 36 | 353 | 4.8 | 8.0 | 0.00 | 0.00 | 0.00 | 44 | 1010.5 |
| 20260905231017 | 36 | 24 | 3.2 | 6.4 | 0.00 | 0.00 | 0.00 | 45 | 1010.5 |
| 20260905230018 | 36 | 320 | 3.2 | 8.0 | 0.00 | 0.00 | 0.00 | 44 | 1010.6 |
| 20260905225038 | 36 | 304 | 4.8 | 9.7 | 0.00 | 0.00 | 0.00 | 42 | 1010.5 |
| 20260905224038 | 36 | 322 | 4.8 | 9.7 | 0.00 | 0.00 | 0.00 | 42 | 1010.4 |
| 20260905223018 | 36 | 306 | 4.8 | 9.7 | 0.00 | 0.00 | 0.00 | 42 | 1010.4 |
| 20260905222038 | 37 | 307 | 4.8 | 8.0 | 0.00 | 0.00 | 0.00 | 41 | 1010.5 |
| 20260905221018 | 36 | 322 | 4.8 | 8.0 | 0.00 | 0.00 | 0.00 | 41 | 1010.5 |
| 20260905220019 | 37 | 305 | 4.8 | 8.0 | 0.00 | 0.00 | 0.00 | 42 | 1010.5 |
| 20260905215018 | 37 | 294 | 3.2 | 8.0 | 0.00 | 0.00 | 0.00 | 41 | 1010.6 |
| 20260905214019 | 37 | 276 | 3.2 | 8.0 | 0.00 | 0.00 | 0.00 | 39 | 1010.7 |
| 20260905213016 | 37 | 45 | 1.6 | 6.4 | 0.00 | 0.00 | 0.00 | 40 | 1010.7 |
| 20260905212036 | 37 | 279 | 3.2 | 6.4 | 0.00 | 0.00 | 0.00 | 39 | 1010.7 |
| 20260905211016 | 38 | 243 | 1.6 | 8.0 | 0.00 | 0.00 | 0.00 | 39 | 1010.7 |
| 20260905210016 | 38 | 232 | 3.2 | 4.8 | 0.00 | 0.00 | 0.00 | 39 | 1010.8 |
| 20260905205016 | 37 | 216 | 3.2 | 8.0 | 0.00 | 0.00 | 0.00 | 40 | 1010.8 |
| 20260905204017 | 36 | 215 | 3.2 | 8.0 | 0.00 | 0.00 | 0.00 | 43 | 1010.9 |
| 20260905203017 | 36 | 173 | 3.2 | 6.4 | 0.00 | 0.00 | 0.00 | 43 | 1011.1 |
| 20260905202036 | 36 | 206 | 4.8 | 9.7 | 0.00 | 0.00 | 0.00 | 44 | 1011.3 |
| 20260905201018 | 36 | 195 | 3.2 | 8.0 | 0.00 | 0.00 | 0.00 | 44 | 1011.4 |
| 20260905200017 | 36 | 139 | 3.2 | 8.0 | 0.00 | 0.03 | 0.00 | 45 | 1011.5 |
| 20260905195018 | 37 | 182 | 3.2 | 6.4 | 0.00 | 0.05 | 0.00 | 43 | 1011.7 |
| 20260905194040 | 37 | 208 | 3.2 | 9.7 | 0.00 | 0.08 | 0.00 | 43 | 1011.8 |
| 20260905193017 | 37 | 219 | 6.4 | 11.3 | 0.00 | 0.08 | 0.00 | 44 | 1012.0 |
| 20260905192058 | 37 | 224 | 8.0 | 12.9 | 0.00 | 0.08 | 0.00 | 42 | 1012.2 |
| 20260905191038 | 37 | 216 | 8.0 | 12.9 | 0.00 | 0.41 | 0.00 | 41 | 1012.3 |
| 20260905190018 | 37 | 239 | 4.8 | 12.9 | 0.00 | 1.91 | 0.00 | 39 | 1012.3 |
| 20260905185018 | 37 | 199 | 3.2 | 8.0 | 0.00 | 2.13 | 0.00 | 41 | 1012.4 |
| 20260905184018 | 36 | 264 | 3.2 | 6.4 | 0.00 | 2.13 | 0.00 | 43 | 1012.5 |
| 20260905183038 | 36 | 336 | 3.2 | 6.4 | 0.00 | 2.13 | 0.00 | 43 | 1012.6 |
| 20260905182020 | 36 | 153 | 3.2 | 6.4 | 0.00 | 2.13 | 0.00 | 44 | 1012.7 |
| 20260905181018 | 36 | 271 | 3.2 | 6.4 | 0.00 | 2.13 | 0.00 | 44 | 1012.8 |
| 20260905180019 | 36 | 92 | 1.6 | 4.8 | 0.00 | 2.13 | 0.00 | 45 | 1012.9 |
| 20260905175015 | 35 | 267 | 4.8 | 9.7 | 0.00 | 2.13 | 0.00 | 46 | 1013.0 |
| 20260905174016 | 36 | 334 | 3.2 | 8.0 | 0.00 | 2.13 | 0.00 | 45 | 1013.2 |
| 20260905173016 | 36 | 62 | 4.8 | 12.9 | 0.00 | 2.13 | 0.00 | 44 | 1013.1 |
| 20260905172037 | 36 | 216 | 4.8 | 8.0 | 0.00 | 2.13 | 0.00 | 45 | 1013.2 |
| 20260905171017 | 35 | 221 | 3.2 | 6.4 | 0.00 | 2.13 | 0.00 | 46 | 1013.4 |
| 20260905170016 | 36 | 303 | 4.8 | 11.3 | 0.00 | 2.13 | 0.00 | 44 | 1013.3 |
| 20260905165017 | 36 | 319 | 4.8 | 12.9 | 0.00 | 2.13 | 0.00 | 46 | 1013.4 |
| 20260905164016 | 36 | 135 | 1.6 | 4.8 | 0.00 | 2.13 | 0.00 | 46 | 1013.5 |
| 20260905163037 | 35 | 321 | 3.2 | 6.4 | 0.00 | 2.13 | 0.00 | 48 | 1013.6 |
| 20260905162017 | 35 | 277 | 3.2 | 8.0 | 0.00 | 2.13 | 0.00 | 47 | 1013.7 |
| 20260905161017 | 35 | 268 | 4.8 | 12.9 | 0.00 | 2.13 | 0.00 | 47 | 1013.7 |
| 20260905160018 | 35 | 210 | 3.2 | 6.4 | 0.00 | 2.13 | 0.00 | 49 | 1013.8 |
| 20260905155019 | 35 | 279 | 1.6 | 6.4 | 0.00 | 2.13 | 0.00 | 50 | 1013.8 |
| 20260905154017 | 34 | 337 | 3.2 | 6.4 | 0.00 | 2.13 | 0.00 | 52 | 1013.9 |
| 20260905153017 | 34 | 314 | 3.2 | 8.0 | 0.00 | 2.13 | 0.00 | 52 | 1014.0 |
| 20260905152017 | 33 | 238 | 4.8 | 6.4 | 0.00 | 2.13 | 0.00 | 54 | 1014.0 |
| 20260905151017 | 33 | 241 | 3.2 | 9.7 | 0.00 | 2.13 | 0.00 | 58 | 1014.0 |
| 20260905150016 | 32 | 153 | 1.6 | 4.8 | 0.00 | 2.13 | 0.00 | 64 | 1014.1 |
| 20260905145057 | 32 | 150 | 1.6 | 6.4 | 0.00 | 2.13 | 0.00 | 67 | 1014.1 |
| 20260905144038 | 32 | 107 | 1.6 | 4.8 | 0.00 | 2.13 | 0.00 | 67 | 1014.1 |
| 20260905143038 | 31 | 210 | 1.6 | 6.4 | 0.00 | 2.13 | 0.00 | 67 | 1014.1 |
| 20260905142017 | 31 | 210 | 1.6 | 3.2 | 0.00 | 2.13 | 0.00 | 67 | 1014.1 |
| 20260905141037 | 30 | 20 | 1.6 | 6.4 | 0.00 | 2.13 | 0.00 | 71 | 1014.1 |
| 20260905140018 | 30 | 51 | 0.0 | 1.6 | 0.00 | 2.13 | 0.00 | 74 | 1014.0 |
| 20260905135016 | 29 | 82 | 0.0 | 3.2 | 0.00 | 2.13 | 0.00 | 75 | 1014.0 |
| 20260905134016 | 28 | 107 | 0.0 | 3.2 | 0.00 | 2.13 | 0.00 | 77 | 1014.0 |
| 20260905133016 | 28 | 63 | 1.6 | 4.8 | 0.00 | 2.13 | 0.00 | 78 | 1014.0 |
| 20260905132056 | 28 | 129 | 0.0 | 1.6 | 0.00 | 2.13 | 0.00 | 78 | 1014.0 |
| 20260905131018 | 27 | 118 | 0.0 | 1.6 | 0.00 | 2.13 | 0.00 | 80 | 1013.9 |
| 20260905130016 | 27 | 91 | 0.0 | 3.2 | 0.00 | 2.13 | 0.00 | 80 | 1013.8 |
| 20260905125016 | 26 | 46 | 0.0 | 1.6 | 0.00 | 2.13 | 0.00 | 84 | 1013.8 |
| 20260905124059 | 26 | 82 | 0.0 | 1.6 | 0.00 | 2.13 | 0.00 | 86 | 1013.8 |
| 20260905123017 | 25 | 63 | 0.0 | 1.6 | 0.00 | 2.13 | 0.00 | 86 | 1013.8 |
| 20260905122040 | 25 | 0.0 | 0.0 | 0.00 | 2.13 | 0.00 | 89 | 1013.7 | |
| 20260905121019 | 25 | 62 | 0.0 | 1.6 | 0.00 | 2.13 | 0.00 | 89 | 1013.7 |
| 20260905120019 | 25 | 0.0 | 0.0 | 0.00 | 2.13 | 0.00 | 89 | 1013.6 | |
| 20260905115019 | 25 | 360 | 0.0 | 1.6 | 0.00 | 2.13 | 0.00 | 88 | 1013.5 |
| 20260905114019 | 25 | 299 | 0.0 | 1.6 | 0.00 | 2.13 | 0.00 | 90 | 1013.4 |
| 20260905113019 | 25 | 227 | 1.6 | 3.2 | 0.00 | 2.13 | 0.00 | 90 | 1013.4 |
| 20260905112020 | 25 | 0.0 | 0.0 | 0.00 | 2.13 | 0.00 | 89 | 1013.3 | |
| 20260905111019 | 25 | 248 | 1.6 | 3.2 | 0.00 | 2.13 | 0.00 | 88 | 1013.3 |
| 20260905110020 | 25 | 243 | 1.6 | 3.2 | 0.00 | 2.13 | 0.00 | 89 | 1013.4 |
| 20260905105101 | 25 | 237 | 1.6 | 3.2 | 0.00 | 2.13 | 0.00 | 88 | 1013.3 |
| 20260905104020 | 25 | 237 | 1.6 | 3.2 | 0.00 | 2.13 | 0.00 | 89 | 1013.2 |
| 20260905103041 | 25 | 220 | 3.2 | 4.8 | 0.00 | 2.13 | 0.00 | 91 | 1013.2 |
| 20260905102040 | 25 | 218 | 1.6 | 1.6 | 0.00 | 2.13 | 0.00 | 90 | 1013.1 |
| 20260905101020 | 24 | 226 | 3.2 | 3.2 | 0.00 | 2.13 | 0.00 | 91 | 1013.1 |
| 20260905100021 | 25 | 194 | 1.6 | 3.2 | 0.00 | 2.13 | 0.00 | 91 | 1013.0 |
| 20260905095041 | 25 | 322 | 0.0 | 1.6 | 0.00 | 2.13 | 0.00 | 90 | 1012.9 |
| 20260905094021 | 25 | 0.0 | 0.0 | 0.00 | 2.13 | 0.00 | 91 | 1012.9 | |
| 20260905093021 | 25 | 0.0 | 0.0 | 0.00 | 2.13 | 0.00 | 89 | 1012.9 | |
| 20260905092021 | 25 | 354 | 0.0 | 1.6 | 0.00 | 2.13 | 0.00 | 89 | 1012.9 |
| 20260905091022 | 25 | 259 | 1.6 | 1.6 | 0.00 | 2.13 | 0.00 | 89 | 1012.9 |
| 20260905090022 | 26 | 229 | 1.6 | 3.2 | 0.00 | 2.13 | 0.00 | 88 | 1012.9 |
| 20260905085018 | 25 | 306 | 0.0 | 3.2 | 0.00 | 2.13 | 0.00 | 87 | 1012.9 |
| 20260905084018 | 25 | 219 | 3.2 | 4.8 | 0.00 | 2.13 | 0.00 | 89 | 1012.8 |
| 20260905083018 | 26 | 188 | 0.0 | 3.2 | 0.00 | 2.13 | 0.00 | 89 | 1012.9 |
| 20260905082018 | 26 | 60 | 0.0 | 1.6 | 0.00 | 2.13 | 0.00 | 87 | 1012.9 |
| 20260905081019 | 26 | 243 | 1.6 | 4.8 | 0.00 | 2.13 | 0.00 | 87 | 1012.9 |
| 20260905080015 | 26 | 245 | 1.6 | 4.8 | 0.00 | 2.13 | 0.00 | 89 | 1013.0 |
| 20260905075018 | 26 | 217 | 0.0 | 3.2 | 0.00 | 2.13 | 0.00 | 89 | 1013.0 |
| 20260905074016 | 26 | 252 | 1.6 | 4.8 | 0.00 | 2.13 | 0.00 | 87 | 1012.9 |
| 20260905073018 | 25 | 284 | 1.6 | 6.4 | 0.00 | 2.13 | 0.00 | 90 | 1013.0 |
| 20260905072016 | 26 | 223 | 1.6 | 6.4 | 0.00 | 2.13 | 0.00 | 90 | 1013.1 |
| 20260905071038 | 26 | 152 | 0.0 | 3.2 | 0.00 | 2.13 | 0.00 | 88 | 1013.0 |
| 20260905070016 | 26 | 325 | 1.6 | 3.2 | 0.00 | 2.13 | 0.00 | 90 | 1012.9 |
| 20260905065016 | 26 | 101 | 0.0 | 1.6 | 0.00 | 2.13 | 0.00 | 88 | 1013.1 |
| 20260905064017 | 26 | 287 | 1.6 | 3.2 | 0.00 | 2.13 | 0.00 | 88 | 1013.1 |
| 20260905063017 | 26 | 179 | 0.0 | 1.6 | 0.00 | 2.13 | 0.00 | 89 | 1013.2 |
| 20260905062016 | 26 | 220 | 0.0 | 3.2 | 0.00 | 2.13 | 0.00 | 88 | 1013.3 |
| 20260905061017 | 27 | 105 | 0.0 | 1.6 | 0.00 | 2.13 | 0.00 | 86 | 1013.3 |
| 20260905060017 | 27 | 263 | 3.2 | 4.8 | 0.00 | 2.13 | 0.00 | 86 | 1013.2 |
| 20260905055019 | 27 | 269 | 0.0 | 1.6 | 0.00 | 2.13 | 0.00 | 84 | 1013.3 |
| 20260905054018 | 27 | 71 | 0.0 | 1.6 | 0.00 | 2.13 | 0.00 | 82 | 1013.3 |
| 20260905053018 | 28 | 305 | 3.2 | 8.0 | 0.00 | 2.13 | 0.00 | 80 | 1013.3 |
| 20260905052018 | 27 | 267 | 1.6 | 3.2 | 0.00 | 2.13 | 0.00 | 81 | 1013.4 |
| 20260905051018 | 27 | 287 | 1.6 | 8.0 | 0.00 | 2.13 | 0.00 | 84 | 1013.4 |
| 20260905050018 | 27 | 232 | 1.6 | 4.8 | 0.00 | 2.13 | 0.00 | 85 | 1013.4 |
| 20260905045039 | 27 | 229 | 1.6 | 4.8 | 0.00 | 2.13 | 2.13 | 86 | 1013.5 |
| 20260905044018 | 27 | 246 | 3.2 | 3.2 | 0.00 | 2.13 | 2.13 | 84 | 1013.4 |
| 20260905043039 | 28 | 141 | 0.0 | 1.6 | 0.00 | 2.13 | 2.13 | 82 | 1013.4 |
| 20260905042020 | 27 | 243 | 3.2 | 4.8 | 0.00 | 2.13 | 2.13 | 82 | 1013.4 |
| 20260905041016 | 27 | 231 | 3.2 | 4.8 | 0.00 | 2.13 | 2.13 | 82 | 1013.4 |
| 20260905040016 | 27 | 231 | 3.2 | 3.2 | 0.00 | 2.13 | 2.13 | 84 | 1013.5 |
| 20260905035037 | 27 | 213 | 3.2 | 4.8 | 0.00 | 2.13 | 2.13 | 84 | 1013.6 |
| 20260905034017 | 27 | 217 | 3.2 | 4.8 | 0.00 | 2.13 | 2.13 | 86 | 1013.7 |
| 20260905033016 | 28 | 142 | 0.0 | 1.6 | 0.00 | 2.13 | 2.13 | 86 | 1013.7 |
| 20260905032037 | 28 | 234 | 0.0 | 1.6 | 0.00 | 2.13 | 2.13 | 83 | 1013.8 |
| 20260905031018 | 28 | 84 | 0.0 | 0.0 | 0.00 | 2.13 | 2.13 | 83 | 1013.7 |
| 20260905030038 | 28 | 259 | 0.0 | 3.2 | 0.00 | 2.13 | 2.13 | 81 | 1013.7 |
| 20260905025037 | 28 | 279 | 1.6 | 6.4 | 0.00 | 2.13 | 2.13 | 81 | 1013.7 |
| 20260905024017 | 28 | 241 | 1.6 | 3.2 | 0.00 | 2.13 | 2.13 | 81 | 1013.6 |
| 20260905023016 | 28 | 265 | 3.2 | 6.4 | 0.00 | 2.13 | 2.13 | 82 | 1013.6 |
| 20260905022017 | 28 | 254 | 0.0 | 0.0 | 0.00 | 2.13 | 2.13 | 82 | 1013.6 |
| 20260905021037 | 28 | 101 | 0.0 | 1.6 | 0.00 | 2.13 | 2.13 | 81 | 1013.6 |
| 20260905020018 | 29 | 8 | 0.0 | 3.2 | 0.00 | 2.13 | 2.13 | 80 | 1013.6 |
| 20260905015201 | 30 | 123 | 0.0 | 1.6 | 0.00 | 2.13 | 2.13 | 77 | 1013.5 |
| 20260905014018 | 30 | 234 | 1.6 | 3.2 | 0.00 | 2.13 | 2.13 | 73 | 1013.4 |
| 20260905013017 | 30 | 257 | 0.0 | 3.2 | 0.00 | 2.13 | 2.13 | 74 | 1013.4 |
| 20260905012018 | 30 | 256 | 1.6 | 6.4 | 0.00 | 2.13 | 2.13 | 72 | 1013.2 |
| 20260905011018 | 30 | 343 | 0.0 | 1.6 | 0.00 | 2.13 | 2.13 | 74 | 1013.1 |
| 20260905010018 | 31 | 158 | 0.0 | 3.2 | 0.00 | 2.13 | 2.13 | 72 | 1013.1 |
| 20260905005018 | 31 | 233 | 0.0 | 1.6 | 0.00 | 2.13 | 2.13 | 68 | 1012.9 |